Change the Weather History Date:

Monday, June 17, 2013

  Actual Average Record
Temperature  
Mean Temperature 81 °F -  
Max Temperature 98 °F 83 °F 98 °F (2013)
Min Temperature 64 °F 61 °F 53 °F (1998)
Cooling Degree Days 16    
Growing Degree Days 31 (Base 50)    
Moisture  
Dew Point 60 °F    
Average Humidity 55    
Maximum Humidity 88    
Minimum Humidity 24    
Precipitation  
Precipitation 0.00 in 0.01 in - ()
Sea Level Pressure  
Sea Level Pressure 29.96 in    
Wind  
Wind Speed 4 mph ()    
Max Wind Speed 13 mph    
Max Gust Speed -    
Visibility 6.2 miles    
Events      
Averages and records for this station are not official NWS values.
T = Trace of Precipitation, MM = Missing Value Source: Averaged Metar Reports

Daily Weather History Graph

Daily Weather History Graph

Search for Another Location

Airport or City:

Trip Planner

Search our weather history database for the weather conditions in past years. The results will help you decide how hot, cold, wet, or windy it might be!

Date:

Astronomy

Jun. 17, 2013 Rise Set
Actual Time 5:55 AM CEST 9:00 PM CEST
Civil Twilight 5:22 AM CEST 9:33 PM CEST
Nautical Twilight 4:39 AM CEST 10:16 PM CEST
Astronomical Twilight 3:49 AM CEST 11:06 PM CEST
Moon 2:19 PM CEST (6/17) 1:24 AM CEST (6/17)
Length of Visible Light 16h 11m
Length of Day
15h 04m
First Quarter, 57% of the Moon is Illuminated
Jun 17
First Quarter
Jun 23
Full
Jun 30
Last Quarter
Jul 8
New
Jul 16
First Quarter

Hourly Weather History & Observations

Time (CEST) Temp. Heat Index Dew Point Humidity Pressure Visibility Wind Dir Wind Speed Gust Speed Precip Events Conditions
12:20 AM 69.8 °F - 64.4 °F 83% 30.01 in - NNE 2.3 mph - N/A   Clear
12:50 AM 68.0 °F - 64.4 °F 88% 30.01 in - NNE 3.5 mph - N/A   Clear
1:20 AM 68.0 °F - 62.6 °F 83% 30.01 in - NE 3.5 mph - N/A   Clear
1:50 AM 66.2 °F - 62.6 °F 88% 30.01 in - Calm Calm - N/A   Clear
2:20 AM 66.2 °F - 62.6 °F 88% 30.01 in - NNE 3.5 mph - N/A   Clear
2:50 AM 66.2 °F - 62.6 °F 88% 30.01 in - Variable 2.3 mph - N/A   Clear
3:20 AM 64.4 °F - 60.8 °F 88% 30.01 in - Calm Calm - N/A   Clear
3:50 AM 66.2 °F - 62.6 °F 88% 29.98 in - North 3.5 mph - N/A   Clear
4:20 AM 66.2 °F - 60.8 °F 83% 29.98 in - North 3.5 mph - N/A   Clear
4:50 AM 66.2 °F - 60.8 °F 83% 29.98 in - NNE 3.5 mph - N/A   Clear
5:20 AM 66.2 °F - 59.0 °F 78% 29.98 in - North 3.5 mph - N/A   Clear
5:50 AM 68.0 °F - 59.0 °F 73% 29.98 in - North 6.9 mph - N/A   Clear
6:20 AM 68.0 °F - 59.0 °F 73% 29.98 in - North 5.8 mph - N/A   Clear
6:50 AM 69.8 °F - 60.8 °F 73% 29.98 in - North 3.5 mph - N/A   Clear
7:20 AM 71.6 °F - 60.8 °F 69% 29.95 in - Variable 2.3 mph - N/A   Clear
7:50 AM 75.2 °F - 62.6 °F 65% 29.95 in - NNE 4.6 mph - N/A   Clear
8:20 AM 78.8 °F - 62.6 °F 57% 29.95 in - NNE 6.9 mph - N/A   Clear
8:50 AM 84.2 °F 85.0 °F 62.6 °F 48% 29.95 in - NNE 8.1 mph - N/A   Clear
9:20 AM 86.0 °F 86.6 °F 62.6 °F 45% 29.95 in - NNE 8.1 mph - N/A   Clear
9:50 AM 89.6 °F 88.9 °F 59.0 °F 36% 29.95 in - NE 8.1 mph - N/A   Clear
10:20 AM 91.4 °F 89.9 °F 57.2 °F 31% 29.95 in - ENE 8.1 mph - N/A   Clear
10:50 AM 93.2 °F 91.3 °F 55.4 °F 28% 29.95 in - ENE 4.6 mph - N/A   Clear
11:20 AM 95.0 °F 93.0 °F 55.4 °F 26% 29.95 in - Variable 2.3 mph - N/A   Clear
11:50 AM 96.8 °F 95.1 °F 55.4 °F 25% 29.95 in - Variable 2.3 mph - N/A   Clear
12:20 PM 98.6 °F 97.2 °F 55.4 °F 24% 29.95 in - SSW 6.9 mph - N/A   Clear
12:50 PM 86.0 °F 86.6 °F 62.6 °F 45% 29.95 in - WNW 12.7 mph - N/A   Clear
1:20 PM 87.8 °F 87.1 °F 59.0 °F 38% 29.95 in - WNW 10.4 mph - N/A   Clear
1:50 PM 89.6 °F 90.1 °F 62.6 °F 40% 29.95 in - NW 6.9 mph - N/A   Clear
2:20 PM 91.4 °F 90.7 °F 59.0 °F 34% 29.95 in - WNW 6.9 mph - N/A   Clear
2:50 PM 93.2 °F 91.9 °F 57.2 °F 30% 29.95 in - West 8.1 mph - N/A   Clear
3:20 PM 93.2 °F 91.9 °F 57.2 °F 30% 29.95 in 6.2 mi Variable 5.8 mph - N/A   Partly Cloudy
3:50 PM 96.8 °F 95.1 °F 55.4 °F 25% 29.95 in 6.2 mi SSE 4.6 mph - N/A   Partly Cloudy
4:20 PM 93.2 °F 90.8 °F 53.6 °F 26% 29.92 in 6.2 mi South 12.7 mph - N/A   Partly Cloudy
4:50 PM 95.0 °F 92.7 °F 53.6 °F 25% 29.92 in 6.2 mi South 12.7 mph - N/A   Partly Cloudy
5:20 PM 93.2 °F 92.6 °F 59.0 °F 32% 29.92 in - Variable 5.8 mph - N/A   Clear
5:50 PM 91.4 °F 89.9 °F 57.2 °F 31% 29.92 in - Variable 5.8 mph - N/A   Clear
6:20 PM 91.4 °F 89.4 °F 55.4 °F 29% 29.92 in - Variable 5.8 mph - N/A   Clear
6:50 PM 91.4 °F 89.9 °F 57.2 °F 31% 29.92 in - Variable 4.6 mph - N/A   Clear
7:20 PM 91.4 °F 89.9 °F 57.2 °F 31% 29.92 in - Variable 4.6 mph - N/A   Clear
7:50 PM 87.8 °F 89.4 °F 64.4 °F 46% 29.92 in - East 8.1 mph - N/A   Clear
8:20 PM 84.2 °F 86.6 °F 66.2 °F 55% 29.92 in - ENE 9.2 mph - N/A   Clear
8:50 PM 78.8 °F - 66.2 °F 65% 29.92 in - NE 4.6 mph - N/A   Clear
9:20 PM 77.0 °F - 66.2 °F 69% 29.92 in - Variable 2.3 mph - N/A   Clear
9:50 PM 77.0 °F - 66.2 °F 69% 29.92 in - Variable 2.3 mph - N/A   Clear
10:20 PM 73.4 °F - 64.4 °F 73% 29.95 in - NNE 2.3 mph - N/A   Clear
10:50 PM 73.4 °F - 64.4 °F 73% 29.95 in - North 3.5 mph - N/A   Clear
11:20 PM 73.4 °F - 64.4 °F 73% 29.95 in - NNE 4.6 mph - N/A   Clear
11:50 PM 73.4 °F - 64.4 °F 73% 29.95 in - North 4.6 mph - N/A   Clear